User: anonymous
Location: Fort Wayne
(41.1310°N, 85.1290°W)
Time: 21:18:48
(UTC-04:00)
Language:

Helios 1B - Orbit

View from above orbital plane
View from above orbital plane
View from above satellite
View from above satellite

Ground track
Ground track

The orbit data is extracted from the following two-line orbital elements,

1 25977U 99064A   14211.33969378  .00000572  00000-0  82204-4 0  3184
2 25977 098.1638 289.5118 0002555 100.0546 306.3933 14.80354086788115
Epoch (UTC): 30 July 2014 08:09:09
Eccentricity: 0.0002555
inclination: 98.1638°
perigee height: 626 km
apogee height: 630 km
right ascension of ascending node: 289.5118°
argument of perigee: 100.0546°
revolutions per day: 14.80354086
mean anomaly at epoch: 306.3933°
orbit number at epoch: 78811

The dashed part of the orbit path shows where the satellite is in the earth's shadow,  

DLR